SCP
0 0 0 0 0 0 0 0 0 0 0 0 0 0 0 0 0 0 0 0 0 0 0 0 0 0 0 0 0 0 0 0 0 0 0 0 0 0 0 0 0 0 0
0 0 0 0 0 0 0 0 0 0 0 0 0 0 0 0 0 0 0 0 0 0 0 0 0 0 0 0 0 0 0 0 0 0 0 0 0 0 0 0 0 0 0
0 0 0 0 0 0 0 0 0 0 0 0 0 0 0 0 0 0 0 0 0 0 0 0 0 0 0 0 0 0 0 0 0 0 0 0 0 0 0 0 0 0 0
0 0 0 0 0 0 0 0 0 0 0 0 0 0 0 0 0 0 0 0 0 0 0 0 0 0 0 0 0 0 0 0 0 0 0 0 0 0 0 0 0 0 0
0 0 0 0 0 0 0 0 0 0 0 0 0 0 0 0 0 0 0 0 0 0 0 0 0 0 0 0 0 0 0 0 0 0 0 0 0 0 0 0 0 0 0
0 0 0 0 0 0 0 0 0 0 0 0 0 0 0 0 0 0 0 0 0 0 0 0 0 0 0 0 0 0 0 0 0 0 0 0 0 0 0 0 0 0 0
0 0 0 0 0 0 0 0 0 0 0 0 0 0 0 0 0 0 0 0 0 0 0 0 0 0 0 0 0 0 0 0 0 0 0 0 0 0 0 0 0 0 0
0 0 0 0 0 0 0 0 0 0 0 0 0 0 0 0 0 0 0 0 0 0 0 0 0 0 0 0 0 0 0 0 0 0 0 0 0 0 0 0 0 0 0
0 0 0 0 0 0 0 0 0 0 0 0 0 0 0 0 0 0 0 0 0 0 0 0 0 0 0 0 0 0 0 0 0 0 0 0 0 0 0 0 0 0 0
0 0 0 0 0 0 0 0 0 0 0 0 0 0 0 0 0 0 0 0 0 0 0 0 0 0 0 0 0 0 0 0 0 0 0 0 0 0 0 0 0 0 0
0 0 0 0 0 0 0 0 0 0 0 0 0 0 0 0 0 0 0 0 0 0 0 0 0 0 0 0 0 0 0 0 0 0 0 0 0 0 0 0 0 0 0
0 0 0 0 0 0 0 0 0 0 0 0 0 0 0 0 0 0 0 0 0 0 0 0 0 0 0 0 0 0 0 0 0 0 0 0 0 0 0 0 0 0 0
0 0 0 0 0 0 0 0 0 0 0 0 0 0 0 0 0 0 0 0 0 0 0 0 0 0 0 0 0 0 0 0 0 0 0 0 0 0 0 0 0 0 0
0 0 0 0 0 0 0 0 0 0 0 0 0 0 0 0 0 0 0 0 0 0 0 0 0 0 0 0 0 0 0 0 0 0 0 0 0 0 0 0 0 0 0
0 0 0 0 0 0 0 0 0 0 0 0 0 0 0 0 0 0 0 0 0 0 0 0 0 0 0 0 0 0 0 0 0 0 0 0 0 0 0 0 0 0 0
0 0 0 0 0 0 0 0 0 0 0 0 0 0 0 0 0 0 0 0 0 0 0 0 0 0 0 0 0 0 0 0 0 0 0 0 0 0 0 0 0 0 0
0 0 0 0 0 0 0 0 0 0 0 0 0 0 0 0 0 0 0 0 0 0 0 0 0 0 0 0 0 0 0 0 0 0 0 0 0 0 0 0 0 0 0
0 0 0 0 0 0 0 0 0 0 0 0 0 0 0 0 0 0 0 0 0 0 0 0 0 0 0 0 0 0 0 0 0 0 0 0 0 0 0 0 0 0 0
0 0 0 0 0 0 0 0 0 0 0 0 0 0 0 0 0 0 0 0 0 0 0 0 0 0 0 0 0 0 0 0 0 0 0 0 0 0 0 0 0 0 0
0 0 0 0 0 0 0 0 0 0 0 0 0 0 0 0 0 0 0 0 0 0 0 0 0 0 0 0 0 0 0 0 0 0 0 0 0 0 0 0 0 0 0
0 0 0 0 0 0 0 0 0 0 0 0 0 0 0 0 0 0 0 0 0 0 0 0 0 0 0 0 0 0 0 0 0 0 0 0 0 0 0 0 0 0 0
0 0 0 0 0 0 0 0 0 0 0 0 0 0 0 0 0 0 0 0 0 0 0 0 0 0 0 0 0 0 0 0 0 0 0 0 0 0 0 0 0 0 0
0 0 0 0 0 0 0 0 0 0 0 0 0 0 0 0 0 0 0 0 0 0 0 0 0 0 0 0 0 0 0 0 0 0 0 0 0 0 0 0 0 0 0
0 0 0 0 0 0 0 0 0 0 0 0 0 0 0 0 0 0 0 0 0 0 0 0 0 0 0 0 0 0 0 0 0 0 0 0 0 0 0 0 0 0 0
0 0 0 0 0 0 0 0 0 0 0 0 0 0 0 0 0 0 0 0 0 0 0 0 0 0 0 0 0 0 0 0 0 0 0 0 0 0 0 0 0 0 0
0 0 0 0 0 0 0 0 0 0 0 0 0 0 0 0 0 0 0 0 0 0 0 0 0 0 0 0 0 0 0 0 0 0 0 0 0 0 0 0 -0 0 0
Wind_Speed
3 3 2 2 3 2 3 3 3 4 5 5 5 5 5 5 4 4 3 8 8 8 8 8 8 8 8 8 8 8 8 8 8 9 8 8 7 7 6 6 5 5 5
3 3 3 3 3 2 2 3 3 3 4 4 5 5 4 4 4 4 4 5 8 8 8 7 7 7 6 6 7 7 7 7 8 8 8 8 7 7 6 5 4 4 4
3 3 3 3 2 2 3 3 3 3 4 4 5 4 4 4 4 4 4 4 4 7 8 8 7 7 6 6 6 6 6 7 7 7 7 7 6 6 5 5 3 3 3
4 3 3 3 2 2 3 3 3 3 4 4 3 3 3 3 4 4 4 4 3 4 6 9 8 7 6 6 6 5 5 5 6 5 5 6 6 5 4 4 3 3 2
4 3 3 3 3 3 3 3 3 3 3 3 3 3 3 3 3 4 5 5 4 4 4 7 9 9 8 7 6 5 5 4 4 4 4 5 5 5 4 3 2 2 2
4 3 3 4 3 3 3 3 4 3 3 3 3 4 3 3 3 3 4 4 4 5 5 5 4 6 9 9 8 6 6 4 4 4 4 4 4 4 4 3 2 2 2
3 3 3 3 3 3 3 3 3 4 3 2 3 2 2 3 3 3 3 3 4 4 4 4 3 3 4 8 8 8 6 6 5 5 5 4 4 5 5 4 3 4 3
3 3 4 3 3 3 4 4 4 3 2 3 2 2 1 2 2 2 2 3 3 3 4 4 3 3 3 3 6 8 7 6 6 5 5 5 5 5 5 5 5 5 5
3 3 3 3 3 3 3 3 3 4 3 2 2 2 2 1 1 2 2 2 3 3 3 3 4 3 3 3 3 6 7 7 6 6 6 6 6 6 6 6 5 5 4
3 3 3 3 3 3 3 3 3 3 3 2 1 2 2 2 1 1 2 1 2 2 2 3 3 3 3 2 4 7 7 7 7 7 7 7 7 7 7 7 7 6 5
2 2 3 3 3 2 3 3 2 3 2 3 2 1 1 2 1 1 1 2 2 1 2 2 2 2 3 3 3 6 8 8 8 8 8 8 8 8 8 8 8 7 7
1 2 2 2 3 2 2 2 2 2 2 2 2 2 2 1 1 1 1 2 3 2 2 1 1 1 2 2 4 8 9 9 9 9 8 8 8 8 8 9 9 8 8
1 1 1 2 2 2 2 2 2 2 2 2 2 1 1 1 1 1 1 1 2 2 2 1 1 1 2 2 3 8 8 10 10 10 9 9 8 8 8 9 9 9 9
2 2 2 2 2 2 2 2 2 1 1 1 1 1 1 0 1 1 1 1 1 2 2 2 1 1 2 2 5 7 5 10 10 9 9 9 9 8 8 9 9 9 9
2 3 2 2 2 2 2 2 2 1 1 1 1 1 1 0 0 1 1 1 2 2 3 2 1 1 2 3 5 4 4 9 10 10 9 9 8 8 8 8 9 9 9
2 3 3 3 2 2 2 3 2 1 1 1 1 1 1 1 1 1 1 1 1 2 4 2 2 3 4 4 7 5 5 10 10 10 9 9 8 8 8 8 9 9 9
3 3 3 3 3 3 3 2 2 2 2 1 1 1 2 1 1 1 1 1 1 2 4 4 3 3 3 4 5 4 5 5 5 10 10 9 9 9 9 9 9 9 9
3 3 3 3 3 2 3 3 3 2 2 2 2 2 2 1 2 2 2 2 2 2 3 6 4 3 3 4 4 5 5 5 5 9 10 10 10 9 9 9 9 8 9
3 3 3 3 3 3 3 3 3 3 3 3 3 3 3 2 2 2 3 3 2 3 3 4 5 3 3 3 4 5 5 4 5 7 9 9 10 10 9 9 9 9 9
3 3 3 3 3 3 3 3 2 2 2 2 2 3 3 4 4 3 3 3 3 3 3 4 5 4 4 3 3 4 5 4 5 5 7 7 8 9 10 10 10 10 10
3 3 3 3 2 3 3 3 3 3 2 2 2 3 3 4 6 5 4 3 3 3 3 4 5 4 4 3 4 4 6 5 5 4 4 4 4 4 5 8 10 10 11
2 2 3 3 3 3 4 5 3 3 3 3 3 3 3 4 5 7 8 8 7 5 5 4 5 5 6 5 4 4 5 6 6 2 3 5 4 5 5 4 9 11 12
2 2 3 3 3 4 5 6 5 3 3 3 4 4 4 4 5 3 6 8 8 9 9 7 7 7 6 5 5 6 6 6 7 5 4 7 4 6 5 6 11 12 12
3 3 3 3 3 4 5 5 5 3 3 3 4 4 5 4 5 5 4 4 5 6 7 6 6 7 6 6 6 7 8 8 7 5 4 7 5 6 6 5 11 12 13
2 2 3 3 3 4 5 6 5 2 3 3 4 4 4 4 7 8 5 5 6 6 7 9 10 10 11 11 9 5 5 6 8 6 3 5 5 5 5 5 7 10 11
3 2 3 3 3 3 6 6 5 2 3 3 3 4 6 7 8 8 5 5 6 6 5 5 6 7 7 8 10 7 5 6 7 6 3 4 5 4 5 4 4 4 6
Wind_Direction
93 84 79 78 71 72 76 74 79 83 78 69 67 68 62 57 52 46 35 47 53 60 67 73 72 68 67 65 63 63 65 64 63 57 53 52 53 53 54 54 58 61 64
93 92 83 78 72 71 75 82 86 90 84 77 68 61 59 56 55 50 41 39 44 51 60 67 69 66 65 62 59 58 63 62 60 58 53 48 46 43 43 44 51 53 55
82 88 83 76 66 71 80 84 81 82 80 73 64 57 57 56 56 51 44 41 33 37 48 57 61 62 60 59 58 55 59 57 53 52 49 43 38 34 32 31 39 46 50
77 85 82 72 67 73 80 88 86 87 78 73 65 50 47 51 53 54 50 46 42 34 35 43 44 49 49 48 49 49 55 54 48 44 40 34 30 28 25 24 30 33 42
78 83 82 75 71 74 71 83 78 86 91 80 73 56 46 46 41 53 53 48 47 42 35 34 34 36 37 36 31 33 34 45 42 39 30 21 17 13 7 2 3 5 17
81 85 84 75 74 76 69 79 89 73 82 81 79 62 46 44 46 48 49 47 46 41 33 31 26 23 28 29 26 29 25 28 26 19 9 1 358 356 349 343 326 317 323
87 91 89 85 79 79 76 88 101 87 66 56 77 62 39 47 54 43 37 47 43 35 31 28 25 22 13 19 19 21 22 20 16 15 11 360 345 338 327 325 310 291 283
89 97 98 100 91 87 78 75 91 96 73 46 82 102 56 13 19 23 30 42 37 32 31 22 22 22 15 6 6 13 13 10 5 0 0 357 351 345 338 329 321 307 284
92 89 97 103 99 101 106 92 88 96 115 64 53 99 129 189 312 340 27 32 25 30 24 11 14 8 13 7 352 0 5 1 354 352 350 342 337 332 328 329 321 327 324
101 99 102 100 104 104 108 106 79 83 112 111 68 44 76 124 134 318 328 3 14 22 10 3 1 0 8 4 353 355 2 357 344 339 339 340 338 328 322 325 320 308 311
100 105 117 116 113 106 111 109 88 82 98 113 113 96 71 58 78 134 285 318 336 339 339 335 339 348 1 1 348 357 360 351 337 329 327 328 331 333 331 326 322 312 306
106 93 108 121 122 117 124 133 118 108 104 99 104 102 112 127 136 128 209 294 302 299 310 301 308 323 347 351 346 355 358 350 340 331 326 328 331 330 328 326 320 315 307
140 155 130 136 130 127 129 121 117 121 119 117 125 121 119 122 137 148 168 272 290 296 295 288 265 311 338 341 335 346 345 344 335 330 325 325 329 328 326 323 318 320 313
171 161 159 148 129 120 124 125 122 137 124 143 139 125 125 158 156 155 170 193 297 296 276 269 283 289 329 328 328 336 329 334 329 324 321 320 323 324 324 320 319 318 319
158 155 161 151 142 136 137 136 146 155 151 171 163 153 174 211 203 206 188 184 192 261 269 262 273 303 318 317 321 323 322 320 324 315 315 318 320 320 319 317 316 316 316
161 161 164 159 150 149 150 146 146 147 156 186 175 160 206 237 214 230 215 223 217 226 258 259 265 301 312 311 314 315 308 317 316 312 309 312 314 314 312 311 310 309 308
164 169 177 176 171 169 161 158 162 156 171 193 200 195 221 221 216 224 228 229 237 233 258 277 272 292 290 296 307 301 295 297 299 306 302 305 306 306 305 303 302 303 305
176 176 180 184 192 187 175 177 185 189 196 207 219 222 237 237 232 227 228 234 239 240 248 276 283 282 277 283 289 292 297 298 288 301 298 299 299 299 299 299 297 299 301
181 180 183 193 200 199 195 197 195 204 214 222 224 228 237 228 243 248 247 243 245 255 250 264 281 283 282 284 293 292 290 288 290 299 299 294 292 294 294 294 296 296 296
184 189 191 199 203 203 205 208 205 215 222 235 239 237 237 230 237 242 251 247 248 254 256 261 274 283 282 283 282 292 298 292 292 298 290 287 288 292 293 292 292 293 292
191 187 187 196 201 205 207 206 210 216 219 234 246 248 249 251 254 253 256 246 244 253 260 264 271 282 283 289 285 287 290 297 286 277 282 280 283 278 281 284 284 286 285
186 186 197 197 206 225 227 231 234 223 230 236 248 256 258 255 256 264 268 266 255 250 253 260 270 270 274 276 285 287 293 298 292 274 272 278 273 274 272 265 280 283 283
186 201 212 206 215 231 234 235 243 238 233 241 245 251 260 258 268 265 272 276 271 263 257 256 260 264 271 273 282 285 280 281 278 285 289 278 268 271 273 275 280 282 283
194 207 224 217 219 233 237 239 244 243 235 240 242 243 248 253 252 257 260 266 268 269 266 262 255 263 267 269 266 272 279 283 278 271 266 274 272 273 277 269 275 278 282
209 217 225 218 215 233 241 244 248 228 238 244 246 247 245 247 253 260 262 266 274 276 278 272 269 270 272 275 274 277 277 283 286 281 258 262 275 283 275 266 271 277 280
218 224 236 230 225 231 238 244 249 231 235 246 253 252 251 252 257 262 258 254 267 273 275 278 277 277 274 273 275 266 264 273 281 282 259 257 274 288 286 269 264 270 273